Hourly Data Report for October 01, 2017

All times are specified in Local Standard Time (LST). Add 1 hour to adjust for Daylight Saving Time where and when it is observed.

OTTAWA INTL A
ONTARIO

45°19'00.000" N
75°40'00.000" W
114.90 m
6106001
71628
YOW

Download Data

Hourly Data (October 2017)
Hourly Data Report for October 1, 2017
Temp Definition
°C
Dew Point Temp Definition
°C
Rel Hum Definition
%
Wind Dir Definition
10's deg

Wind Spd Definition
km/h
Visibility Definition
km
Stn Press Definition
kPa
Hmdx Definition


Wind Chill Definition


Weather Definition


TIME
00:00 Legend Double Dagger 3.7 2.3 90 24 7 24.1 101.49     LegendNANA
01:00 Legend Double Dagger 3.9 2.3 89 23 10 24.1 101.48     Clear
02:00 Legend Double Dagger 2.4 1.1 92 24 9 24.1 101.49     LegendNANA
03:00 Legend Double Dagger 2.8 1.8 93 22 4 24.1 101.48     LegendNANA
04:00 Legend Double Dagger 3.4 2.0 91 22 8 24.1 101.50     Clear
05:00 Legend Double Dagger 3.2 2.2 93 21 6 24.1 101.52     LegendNANA
06:00 Legend Double Dagger 3.1 2.3 94 22 6 24.1 101.52     LegendNANA
07:00 Legend Double Dagger 3.5 2.8 95 25 9 24.1 101.54     Clear
08:00 Legend Double Dagger 8.3 5.6 83 27 11 24.1 101.58     LegendNANA
09:00 Legend Double Dagger 11.0 5.0 66 26 8 24.1 101.58     LegendNANA
10:00 Legend Double Dagger 13.1 4.5 56 28 13 24.1 101.56     Clear
11:00 Legend Double Dagger 14.8 4.3 49 25 14 24.1 101.48     LegendNANA
12:00 Legend Double Dagger 16.2 2.9 41 29 18 24.1 101.43     LegendNANA
13:00 Legend Double Dagger 17.1 3.8 41 27 14 24.1 101.34     Clear
14:00 Legend Double Dagger 17.3 2.6 37 24 17 24.1 101.25     LegendNANA
15:00 Legend Double Dagger 17.9 3.9 39 29 17 24.1 101.18     LegendNANA
16:00 Legend Double Dagger 17.6 3.5 39 28 13 24.1 101.16     Mostly Cloudy
17:00 Legend Double Dagger 16.4 5.7 49 29 9 24.1 101.16     LegendNANA
18:00 Legend Double Dagger 13.5 5.8 59 29 8 24.1 101.17     LegendNANA
19:00 Legend Double Dagger 10.3 5.3 71 32 5 24.1 101.20     Mainly Clear
20:00 Legend Double Dagger 8.6 5.7 82 36 1 24.1 101.26     LegendNANA
21:00 Legend Double Dagger 7.4 5.3 86 17 5 24.1 101.25     LegendNANA
22:00 Legend Double Dagger 8.5 4.7 77 18 10 24.1 101.29     Mainly Clear
23:00 Legend Double Dagger 7.5 4.2 80 18 4 24.1 101.33     LegendNANA

Notes on Data Quality.

Legend

  • E = Estimated
  • M = Missing
  • NA = Not Available
  • ‡ = Partner data that is not subject to review by the National Climate Archives
Date modified: